Baker, MT

4:35 AM MDT on May 26, 2018 (GMT -0600)
Baker Municipal

Weather History for KBHK - October, 2011

Change the Weather History Date:

Thursday, October 20, 2011

  Actual Average Record
Temperature  
Mean Temperature 47 °F -  
Max Temperature 68 °F 62 °F 81 °F (2017)
Min Temperature 28 °F 27 °F 26 °F (2006)
Degree Days  
Heating Degree Days 18    
Moisture  
Dew Point 30 °F    
Average Humidity 55    
Maximum Humidity 78    
Minimum Humidity 30    
Precipitation  
Precipitation 0.00 in - - ()
Sea Level Pressure  
Sea Level Pressure 29.95 in    
Wind  
Wind Speed 11 mph (WSW)    
Max Wind Speed 15 mph    
Max Gust Speed 22 mph    
Visibility 10 miles    
Events      
Averages and records for this station are not official NWS values.
T = Trace of Precipitation, MM = Missing Value Source: NWS Daily Summary

Daily Weather History Graph

Daily Weather History Graph

Search for Another Location

Airport or City:

Astronomy

Oct. 20, 2011 Rise Set
Actual Time 7:20 AM MDT 6:01 PM MDT
Civil Twilight 6:50 AM MDT 6:32 PM MDT
Nautical Twilight 6:15 AM MDT 7:07 PM MDT
Astronomical Twilight 5:40 AM MDT 7:42 PM MDT
Moon No Moon Rise 2:34 PM MDT (10/20)
Length of Visible Light 11h 42m
Length of Day
10h 41m
Last Quarter, 43% of the Moon is Illuminated
Oct 20
Last Quarter
Oct 26
New
Nov 2
First Quarter
Nov 10
Full
Nov 18
Last Quarter

Hourly Weather History & Observations

Time (MDT) Temp. Windchill Dew Point Humidity Pressure Visibility Wind Dir Wind Speed Gust Speed Precip Events Conditions
12:51 AM 36.0 °F 26.7 °F 25.0 °F 64% 29.96 in 10.0 mi SE 15.0 mph 21.9 mph N/A   Clear
1:51 AM 34.0 °F 24.2 °F 25.0 °F 70% 29.96 in 10.0 mi SE 15.0 mph - N/A   Clear
2:51 AM 33.1 °F 23.9 °F 24.1 °F 70% 29.96 in 10.0 mi SE 12.7 mph - N/A   Clear
3:51 AM 32.0 °F 24.2 °F 24.1 °F 73% 29.96 in 10.0 mi ESE 9.2 mph 19.6 mph N/A   Clear
4:51 AM 30.9 °F 22.8 °F 23.0 °F 72% 29.94 in 10.0 mi SE 9.2 mph - N/A   Clear
5:51 AM 30.9 °F 22.2 °F 23.0 °F 72% 29.95 in 10.0 mi SE 10.4 mph - N/A   Clear
6:51 AM 28.9 °F 21.1 °F 23.0 °F 78% 29.97 in 10.0 mi SE 8.1 mph - N/A   Clear
7:51 AM 28.9 °F 23.9 °F 23.0 °F 78% 29.98 in 10.0 mi ESE 4.6 mph - N/A   Clear
8:51 AM 39.0 °F 34.0 °F 27.0 °F 62% 29.96 in 10.0 mi ESE 6.9 mph - N/A   Clear
9:51 AM 50.0 °F - 30.9 °F 48% 29.95 in 10.0 mi West 4.6 mph - N/A   Clear
10:51 AM 54.0 °F - 32.0 °F 43% 29.94 in 10.0 mi West 5.8 mph - N/A   Clear
11:51 AM 57.0 °F - 33.1 °F 40% 29.93 in 10.0 mi West 11.5 mph - N/A   Clear
12:51 PM 61.0 °F - 34.0 °F 36% 29.92 in 10.0 mi WNW 11.5 mph - N/A   Clear
1:51 PM 64.0 °F - 34.0 °F 33% 29.91 in 10.0 mi WNW 11.5 mph - N/A   Clear
2:51 PM 66.0 °F - 34.0 °F 30% 29.89 in 10.0 mi NW 11.5 mph - N/A   Clear
3:51 PM 66.9 °F - 34.0 °F 30% 29.90 in 10.0 mi WNW 13.8 mph - N/A   Clear
4:51 PM 64.0 °F - 36.0 °F 35% 29.91 in 10.0 mi WNW 12.7 mph 20.7 mph N/A   Clear
5:51 PM 59.0 °F - 37.0 °F 44% 29.94 in 10.0 mi West 9.2 mph - N/A   Clear
6:51 PM 54.0 °F - 36.0 °F 51% 29.97 in 10.0 mi West 6.9 mph - N/A   Clear
7:51 PM 51.1 °F - 36.0 °F 56% 29.98 in 10.0 mi WSW 9.2 mph - N/A   Clear
8:51 PM 48.9 °F - 36.0 °F 61% 29.98 in 10.0 mi West 5.8 mph - N/A   Clear
11:51 PM 45.0 °F 43.5 °F 35.1 °F 68% 29.99 in 10.0 mi NW 3.5 mph - N/A   Clear